Overview Statistics Trail Chart Weather Telemetry Raw packets
 

This is the latest recevied weather packets stored in our database for station/object HS2GJW-1. If no packets are shown the sender has not sent any weather packets the latest 10 day(s).

<< 7 8 9 10 11 12 13 >>
Time Temp. Humidity Pressure Rain* Wind** Luminosity Snow
1788405190 32.78° C 80% 1010 hPa - - 0 W/m² -
1788404564 33.33° C 78% 1010 hPa - - 0 W/m² -
1788403940 32.78° C 77% 1010 hPa - - 0 W/m² -
1788403315 32.78° C 81% 1010 hPa - - 0 W/m² -
1788402690 32.22° C 84% 1010 hPa - - 0 W/m² -
1788402063 32.22° C 87% 1010 hPa - - 0 W/m² -
1788401439 31.67° C 89% 1010 hPa - - 0 W/m² -
1788400814 31.67° C 92% 1010 hPa - - 0 W/m² -
1788400189 31.11° C 95% 1010 hPa - - 0 W/m² -
1788399564 31.11° C 96% 1010 hPa - - 0 W/m² -
1788398937 31.11° C 97% 1010 hPa - - 0 W/m² -
1788398312 30.56° C 99% 1010 hPa - - 0 W/m² -
1788397687 30° C 99% 1010 hPa - - 0 W/m² -
1788397062 30° C 99% 1010 hPa - - 0 W/m² -
1788396437 30° C 99% 1010 hPa - - 0 W/m² -
1788395810 30° C 99% 1009 hPa - - 0 W/m² -
1788395185 30° C 99% 1009 hPa - - 0 W/m² -
1788394560 29.44° C 99% 1009 hPa - - 0 W/m² -
1788393935 28.89° C 99% 1009 hPa - - 0 W/m² -
1788393308 28.89° C 99% 1009 hPa - - 0 W/m² -
1788392683 28.33° C 99% 1009 hPa - - 0 W/m² -
1788392058 28.33° C 99% 1009 hPa - - 0 W/m² -
1788391434 28.33° C 99% 1009 hPa - - 0 W/m² -
1788390809 28.33° C 99% 1009 hPa - - 0 W/m² -
1788390186 28.33° C 99% 1009 hPa - - 0 W/m² -

* Rain since midnight (hover to see other rain measurements)
** Current wind speed in m/s (hover to see current wind gust speed)